This is the latest recevied weather packets stored in our database for station/object KM4NDN. If no packets are shown the sender has not sent any weather packets the latest 10 day(s).
| Time | Temp. | Humidity | Pressure | Rain* | Wind** | Luminosity | Snow |
|---|---|---|---|---|---|---|---|
| 1777729358 | 4.44° C | 78% | 1015.8 hPa | 0 mm | - | 110 W/m² | - |
| 1777729054 | 4.44° C | 79% | 1015.9 hPa | 0 mm | - | 125 W/m² | - |
| 1777728751 | 4.44° C | 80% | 1015.9 hPa | 0 mm | - | 90 W/m² | - |
| 1777728448 | 4.44° C | 78% | 1015.9 hPa | 0 mm | - | 64 W/m² | - |
| 1777728145 | 4.44° C | 79% | 1015.5 hPa | 0 mm | - | 63 W/m² | - |
| 1777727842 | 4.44° C | 79% | 1015.6 hPa | 0 mm | - | 69 W/m² | - |
| 1777727539 | 4.44° C | 77% | 1015.8 hPa | 0 mm | - | 67 W/m² | - |
| 1777727236 | 4.44° C | 78% | 1015.6 hPa | 0 mm | - | 67 W/m² | - |
| 1777726934 | 4.44° C | 77% | 1015.7 hPa | 0 mm | - | 79 W/m² | - |
| 1777726630 | 5° C | 77% | 1015.4 hPa | 0 mm | - | 92 W/m² | - |
| 1777726328 | 5° C | 78% | 1015.4 hPa | 0 mm | - | 148 W/m² | - |
| 1777726024 | 4.44° C | 77% | 1015.4 hPa | 0 mm | - | 134 W/m² | - |
| 1777725721 | 4.44° C | 78% | 1015.5 hPa | 0 mm | - | 110 W/m² | - |
| 1777725420 | 4.44° C | 78% | 1015.6 hPa | 0 mm | - | 78 W/m² | - |
| 1777725116 | 4.44° C | 79% | 1015.7 hPa | 0 mm | - | 81 W/m² | - |
| 1777724813 | 4.44° C | 79% | 1015.7 hPa | 0 mm | - | 97 W/m² | - |
| 1777724509 | 4.44° C | 80% | 1015.6 hPa | 0 mm | - | 77 W/m² | - |
| 1777724208 | 4.44° C | 81% | 1015.7 hPa | 0 mm | - | 74 W/m² | - |
| 1777723905 | 4.44° C | 80% | 1015.8 hPa | 0 mm | - | 65 W/m² | - |
| 1777723601 | 4.44° C | 79% | 1015.6 hPa | 0 mm | - | 56 W/m² | - |
| 1777723298 | 4.44° C | 80% | 1015.6 hPa | 0 mm | - | 52 W/m² | - |
| 1777722996 | 4.44° C | 81% | 1015.5 hPa | 0 mm | - | 66 W/m² | - |
| 1777722692 | 3.89° C | 81% | 1015.6 hPa | 0 mm | - | 62 W/m² | - |
| 1777722388 | 3.89° C | 82% | 1015.6 hPa | 0 mm | - | 57 W/m² | - |
| 1777722086 | 3.89° C | 83% | 1015.4 hPa | 0 mm | - | 54 W/m² | - |
* Rain latest hour (hover to see other rain measurements)
** Current wind speed in m/s (hover to see current wind gust speed)